{"data":{"norad_id":62392,"epoch":"2026-09-18T22:47:23.928000Z","epoch_age_seconds":446285,"freshness":"STALE","line1":"1 62392U 24247R   26261.94958250  .00004486  00000+0  16101-3 0  9993","line2":"2 62392  44.9989 139.6545 0002449 172.7436 187.3484 15.30152074 97312","mean_motion":15.30152074,"eccentricity":0.0002449,"inclination_deg":44.9989,"raan_deg":139.6545,"arg_perigee_deg":172.7436,"mean_anomaly_deg":187.3484,"bstar":0.00016101,"rev_number":9731,"period_min":94.10829318655,"perigee_km":473.67975058407,"apogee_km":477.0365925191,"semimajor_km":6853.4951715516,"source":"CELESTRAK","updated_at":"2026-09-23T09:00:21.395104Z"}}